Weather History for HELX - October, 2011

Change the Weather History Date:

Sunday, October 30, 2011

  Actual Average Record
Temperature  
Mean Temperature 72 °F -  
Max Temperature 83 °F 81 °F 95 °F (2007)
Min Temperature 60 °F 54 °F 53 °F (1996)
Cooling Degree Days 6    
Growing Degree Days 22 (Base 50)    
Moisture  
Dew Point 47 °F    
Average Humidity 42    
Maximum Humidity 64    
Minimum Humidity 19    
Precipitation  
Precipitation 0.00 in 0.00 in - ()
Sea Level Pressure  
Sea Level Pressure 29.91 in    
Wind  
Wind Speed 2 mph ()    
Max Wind Speed 7 mph    
Max Gust Speed -    
Visibility 5.2 miles    
Events      
Averages and records for this station are not official NWS values.
T = Trace of Precipitation, MM = Missing Value Source: Averaged Metar Reports

Daily Weather History Graph

Daily Weather History Graph

Search for Another Location

Airport or City:

Trip Planner

Search our weather history database for the weather conditions in past years. The results will help you decide how hot, cold, wet, or windy it might be!

Date:

Astronomy

Oct. 30, 2011 Rise Set
Actual Time 5:55 AM EET 5:09 PM EET
Civil Twilight 5:32 AM EET 5:33 PM EET
Nautical Twilight 5:05 AM EET 6:00 PM EET
Astronomical Twilight 4:38 AM EET 6:27 PM EET
Moon 9:39 AM EET (10/30) 8:32 PM EET (10/30)
Length of Visible Light 12h 00m
Length of Day
11h 13m
Waxing Crescent, 18% of the Moon is Illuminated
Oct 30
Waxing Crescent
Nov 2
First Quarter
Nov 10
Full
Nov 18
Last Quarter
Nov 25
New

Hourly Weather History & Observations

Time (EET) Temp. Heat Index Dew Point Humidity Pressure Visibility Wind Dir Wind Speed Gust Speed Precip Events Conditions
12:00 AM 68.0 °F - 41.0 °F 37% 29.92 in - SSE 2.3 mph - N/A   Clear
1:00 AM 66.2 °F - 39.2 °F 37% 29.92 in - South 3.5 mph - N/A   Clear
2:00 AM 64 °F - 42 °F 32% 29.90 in 6 mi SSE 2.3 mph - -  
2:00 AM 64.4 °F - 41.0 °F 42% 29.92 in - SSE 2.3 mph - N/A   Clear
3:00 AM 64.4 °F - 51.8 °F 64% 29.98 in 1.9 mi NW 5.8 mph - N/A   Haze
4:00 AM 62.6 °F - 46.4 °F 55% 29.92 in - Calm Calm - N/A   Clear
5:00 AM 59.0 °F - 42.8 °F 55% 29.92 in - Calm Calm - N/A   Clear
6:00 AM 57.2 °F - 42.8 °F 59% 29.92 in - Calm Calm - N/A   Clear
7:00 AM 60.8 °F - 46.4 °F 59% 29.95 in - South 2.3 mph - N/A   Clear
8:00 AM 67 °F - 46 °F 36% 29.95 in 6 mi SW 2.3 mph - -  
8:00 AM 66.2 °F - 46.4 °F 49% 29.95 in - SW 2.3 mph - N/A   Clear
9:00 AM 73.4 °F - 51.8 °F 47% 29.95 in - Calm Calm - N/A   Clear
10:00 AM 75.2 °F - 51.8 °F 44% 29.95 in - Calm Calm - N/A   Clear
11:00 AM 78.8 °F - 53.6 °F 42% 29.92 in - Calm Calm - N/A   Clear
12:00 PM 80.6 °F 80.3 °F 53.6 °F 39% 29.92 in - North 4.6 mph - N/A   Clear
1:00 PM 80.6 °F - 48.2 °F 32% 29.89 in - Calm Calm - N/A   Clear
2:00 PM 82 °F - 47 °F 19% 29.86 in 6 mi NW 6.9 mph - -  
2:00 PM 82.4 °F - 46.4 °F 28% 29.86 in - NW 6.9 mph - N/A   Clear
3:00 PM 82.4 °F - 42.8 °F 25% 29.86 in - NW 6.9 mph - N/A   Clear
4:00 PM 82.4 °F - 42.8 °F 25% 29.86 in - WNW 6.9 mph - N/A   Clear
5:00 PM 80.6 °F - 44.6 °F 28% 29.86 in - WNW 6.9 mph - N/A   Clear
6:00 PM 75.2 °F - 48.2 °F 38% 29.86 in - West 6.9 mph - N/A   Clear
7:00 PM 71.6 °F - 48.2 °F 43% 29.86 in - West 5.8 mph - N/A   Clear
8:00 PM 71 °F - 50 °F 36% 29.88 in 6 mi Calm Calm - -  
8:00 PM 71.6 °F - 50.0 °F 46% 29.89 in - Calm Calm - N/A   Clear
9:00 PM 71.6 °F - 50.0 °F 46% 29.89 in - Calm Calm - N/A   Clear
10:00 PM 68.0 °F - 50.0 °F 52% 29.89 in - SE 3.5 mph - N/A   Clear
11:00 PM 66.2 °F - 46.4 °F 49% 29.89 in - South 2.3 mph - N/A   Clear